Simultaneous Nadir Overpasses (SNOs) Predictions

Prediction of SNOs over PacNW region [( 10.00, 139.50) to ( 22.70, 165.60)] between AQUA and NPP Satellites:

Table of predicted SNOs over PacNW region for the next 30.0 days since TLE Epoch: 1/26/2017
Index Date (AQUA) Time (AQUA) AQUA Lat,Lon Date (NPP) Time (NPP) NPP Lat,Lon Distance(km) Time Diff (sec)
1 02/01/2017 15:09:47 22.60, 159.85 02/01/2017 15:11:20 23.17, 157.17 282.67 93
2 02/04/2017 03:31:37 22.65, 147.53 02/04/2017 03:28:08 24.72, 145.18 331.72 209
3 02/09/2017 15:59:16 22.59, 147.49 02/09/2017 16:01:59 23.25, 144.51 314.17 163
4 02/17/2017 15:09:50 22.62, 159.87 02/17/2017 15:11:10 23.20, 157.20 280.94 80
5 02/20/2017 03:31:41 22.68, 147.53 02/20/2017 03:28:11 25.41, 145.03 395.38 210




NCC Satellite Simultaneous Nadir Overpasses (SNOs) Prediction Service
